User: anonymous   Login
Location: Unspecified
(0.0000°N, 0.0000°E)
Time: 06:09:28
(UTC+00:00)
Language:

USA 253 - Orbit

View from above orbital plane
View from above orbital plane
View from above satellite
View from above satellite

Ground track
Ground track

The orbit data is extracted from the following two-line orbital elements,

1 40099U 14043A   17268.99998843 0.00000000  00000-0  00000-0 0    00
2 40099   0.1100  98.7680 0009430  69.6700 236.5201  1.00416528    04
Epoch (UTC): 25 September 2017 23:59:59
Eccentricity: 0.0009430
inclination: 0.1100°
perigee height: 35706 km
apogee height: 35785 km
right ascension of ascending node: 98.7680°
argument of perigee: 69.6700°
revolutions per day: 1.00416528
mean anomaly at epoch: 236.5201°
orbit number at epoch: 0

The dashed part of the orbit path shows where the satellite is in the earth's shadow,  

DLR